Home > Weather > Manado > Past weeks

Flag for Indonesia Past Weather in Manado, North Sulawesi, Indonesia — Yesterday and Last 2 Weeks

Now
84 °F

Scattered clouds.


Feels Like: 92 °F
Forecast: 76 / 85 °F
Wind: 3 mph from Northwest

Location: Menado / Dr. Sam Ratulangi

Current Time: Jul 23, 2016 at 5:29:09 PM

Latest Report: Jul 23, 2016 at 5:00 PM


Visibility: 6 mi

Pressure: 29.74 "Hg

Humidity: 74%

Dew Point: 75 °F

Location of ManadoLocation

Past Weather in Manado — Graph

°F

Manado Temperature Yesterday

Maximum temperature yesterday: 90 °F (at 11:30 AM)
Minimum temperature yesterday: 73 °F (at 4:00 AM)
Average temperature yesterday: 79 °F

High & Low Weather Summary for the Past Weeks

 TemperatureHumidityPressure
High99 °F (Jul 14, 12:30 PM)100% (Jul 11, 3:00 AM)29.89 "Hg (Jul 11, 3:00 AM)
Low72 °F (Jul 14, 4:00 AM)44% (Jul 9, 11:30 AM)29.74 "Hg (Jul 10, 2:30 PM)
Average81 °F81%29.82 "Hg
* Reported Jul 8 4:00 PM — Jul 23 4:00 PM, Manado, Weather by CustomWeather, © 2016

Note: Actual official high and low records may vary slightly from our data, if they occured in-between our weather recording intervals... More about our weather records

Advertising

Manado Weather History for the Previous 24 Hours

Scroll right to see more
 ConditionsComfort  
Time TempWeatherWind HumidityBarometerVisibility
4:00 PM
Sat, Jul 23
88 °FLight rain. Scattered clouds.5 mph66%29.74 "Hg6 mi
3:30 PM90 °FLight rain. Scattered clouds.6 mph63%29.74 "HgN/A
3:00 PM86 °FScattered clouds.3 mph70%29.74 "HgN/A
2:30 PM88 °FScattered clouds.2 mph62%29.77 "HgN/A
2:00 PM82 °FScattered clouds.6 mph84%29.74 "HgN/A
1:30 PM84 °FLight rain. Scattered clouds.2 mph70%29.77 "HgN/A
1:00 PM81 °FThunderstorms. Scattered clouds.7 mph84%29.77 "Hg5 mi
12:30 PM88 °FThunderstorms. Scattered clouds.8 mph55%29.80 "Hg5 mi
12:00 PM86 °FScattered clouds.6 mph62%29.77 "HgN/A
11:30 AM88 °FScattered clouds.6 mph62%29.80 "HgN/A
11:00 AM88 °FScattered clouds.5 mph62%29.80 "HgN/A
10:30 AM91 °FPassing clouds.3 mph52%29.83 "HgN/A
10:00 AM90 °FPassing clouds.5 mph52%29.83 "HgN/A
9:00 AM88 °FPassing clouds.2 mph59%29.83 "HgN/A
8:30 AM84 °FPassing clouds.3 mph66%29.83 "HgN/A
8:00 AM84 °FPassing clouds.1 mph70%29.83 "HgN/A
7:30 AM82 °FPassing clouds.2 mph74%29.83 "HgN/A
7:00 AM79 °FPassing clouds.2 mph84%29.83 "HgN/A
6:30 AM75 °FPassing clouds.2 mph89%29.83 "HgN/A
6:00 AM73 °FPassing clouds.3 mph94%29.83 "HgN/A
5:30 AM73 °FPassing clouds.2 mph94%29.80 "HgN/A
4:30 AM73 °FPassing clouds.3 mph94%29.80 "Hg6 mi
4:00 AM73 °FPassing clouds.No wind94%29.80 "Hg6 mi
3:30 AM73 °FPassing clouds.No wind94%29.80 "Hg6 mi
3:00 AM73 °FPassing clouds.3 mph94%29.80 "Hg6 mi
2:30 AM75 °FPassing clouds.No wind94%29.80 "Hg6 mi
1:30 AM75 °FPassing clouds.2 mph94%29.83 "Hg6 mi
1:00 AM73 °FPassing clouds.2 mph100%29.83 "Hg6 mi
12:30 AM73 °FPassing clouds.3 mph94%29.86 "Hg6 mi
12:00 AM73 °FPassing clouds.2 mph100%29.86 "Hg6 mi
11:30 PM
Fri, Jul 22
75 °FPassing clouds.2 mph94%29.86 "Hg6 mi
10:30 PM79 °FPassing clouds.5 mph74%29.83 "Hg5 mi
10:00 PM79 °FPassing clouds.6 mph74%29.83 "Hg5 mi
9:30 PM79 °FLight rain. Passing clouds.12 mph79%29.83 "Hg5 mi
9:00 PM75 °FPassing clouds.2 mph94%29.83 "Hg5 mi
8:30 PM75 °FPassing clouds.2 mph94%29.83 "Hg6 mi
8:00 PM75 °FPassing clouds.No wind94%29.83 "Hg5 mi
7:30 PM75 °FPassing clouds.2 mph94%29.83 "Hg6 mi
7:00 PM75 °FPassing clouds.2 mph94%29.83 "Hg6 mi
6:30 PM75 °FPassing clouds.2 mph94%29.83 "HgN/A
6:00 PM75 °FPassing clouds.No wind94%29.80 "HgN/A
5:30 PM75 °FScattered clouds.2 mph94%29.80 "HgN/A
5:00 PM75 °FLight rain. Scattered clouds.1 mph94%29.80 "Hg6 mi
Weather by CustomWeather, © 2016

See weather overviewHow to use our weather pages